User: anonymous   Login
Location: Unspecified
(0.0000°N, 0.0000°E)
Time: 00:26:11
(UTC+00:00)
Language:

Gonets-D1 - Orbit

View from above orbital plane
View from above orbital plane
View from above satellite
View from above satellite

Ground track
Ground track

The orbit data is extracted from the following two-line orbital elements,

1 24726U 97006B   19291.82388447 +.00000020 +00000-0 +50497-4 0  9990
2 24726 082.6049 009.0691 0005223 189.5311 170.5681 12.61340952043779
Epoch (UTC): 18 October 2019 19:46:23
Eccentricity: 0.0005223
inclination: 82.6049°
perigee height: 1413 km
apogee height: 1421 km
right ascension of ascending node: 9.0691°
argument of perigee: 189.5311°
revolutions per day: 12.61340952
mean anomaly at epoch: 170.5681°
orbit number at epoch: 4377

The dashed part of the orbit path shows where the satellite is in the earth's shadow,  

DLR